Date String (YYYY-MM-DD hh:mm:ss) UTC,Instrument flags,absolute air pressure of the measurement (hPa),sample flow rate (lpm),inlet stack bypass flow (lpm),air temperature of the measurement (°C),ambient temperature measured by the external sensor (°C),aerosol sample conditioner tube jacket temperature (°C),OPC LED temperature (°C),internal box temperature (°C),relative humidity of the measurement (%),span deviation,mass concentration of particles derived from Lorenz-Mie calculation of OPC scattering (μg/m³),mass concentration of particles derived from Lorenz-Mie calculation of OPC scattering (μg/m³),mass concentration of particles derived from Lorenz-Mie calculation of OPC scattering (μg/m³)
DateTimeUTC,F1_M11,P_M11,Q1_M11,Q2_M11,T1_M11,T2_M11,T3_M11,T4_M11,T5_M11,U1_M11,ZSPAN_M11,X0_M11,X2_M11,X1_M11
2024-04-06 13:00:00,SystemResetWarning,0809.8,5.00,000.00,020.4,019.4,000.0,028.9,021.9,012.6,0000.0,0011.78,0002.01,0000.73
2024-04-06 13:01:00,SystemResetWarning,0809.9,4.99,000.00,020.4,019.4,000.0,028.9,021.9,012.6,0000.0,0010.35,0002.00,0000.72
2024-04-06 13:02:00,SystemResetWarning,0810.0,4.99,000.00,020.4,019.4,000.0,028.9,021.9,012.6,0000.0,0009.67,0002.01,0000.73
2024-04-06 13:03:00,SystemResetWarning,0809.9,5.00,000.00,020.3,019.4,000.0,028.9,021.9,012.5,0000.0,0009.75,0002.05,0000.74
2024-04-06 13:04:00,SystemResetWarning,0809.9,5.00,000.00,020.3,019.4,000.0,028.9,021.9,012.6,0000.0,0010.09,0002.02,0000.73
2024-04-06 13:05:00,SystemResetWarning,0809.8,5.00,000.00,020.3,019.4,000.0,028.8,021.9,012.5,0000.0,0010.72,0002.03,0000.73
2024-04-06 13:06:00,SystemResetWarning,0809.8,5.00,000.00,020.3,019.4,000.0,028.8,021.9,012.3,0000.0,0010.20,0002.05,0000.73
2024-04-06 13:07:00,SystemResetWarning,0809.7,5.00,000.00,020.3,019.4,000.0,028.8,021.8,012.4,0000.0,0009.58,0002.06,0000.73
2024-04-06 13:08:00,SystemResetWarning,0809.6,5.00,000.00,020.3,019.4,000.0,028.8,021.8,012.6,0000.0,0010.04,0002.11,0000.72
2024-04-06 13:09:00,SystemResetWarning,0809.6,5.00,000.00,020.2,019.3,000.0,028.8,021.8,012.6,0000.0,0009.46,0002.08,0000.72
2024-04-06 13:10:00,SystemResetWarning,0809.8,5.00,000.00,020.2,019.3,000.0,028.7,021.8,012.7,0000.0,0009.27,0002.09,0000.73
2024-04-06 13:11:00,SystemResetWarning,0810.0,5.00,000.00,020.2,019.3,000.0,028.7,021.7,012.7,0000.0,0009.26,0002.14,0000.73
2024-04-06 13:12:00,SystemResetWarning,0810.0,4.99,000.00,020.2,019.3,000.0,028.7,021.7,012.7,0000.0,0008.81,0002.11,0000.72
2024-04-06 13:13:00,SystemResetWarning,0809.9,5.01,000.00,020.2,019.3,000.0,028.7,021.7,012.7,0000.0,0008.83,0002.12,0000.71
2024-04-06 13:14:00,SystemResetWarning,0810.0,5.00,000.00,020.2,019.3,000.0,028.7,021.7,012.7,0000.0,0008.96,0002.20,0000.70
2024-04-06 13:15:00,SystemResetWarning,0810.0,5.00,000.00,020.1,019.2,000.0,028.7,021.7,012.8,0000.0,0009.52,0002.30,0000.71
2024-04-06 13:16:00,SystemResetWarning,0809.9,5.00,000.00,020.1,019.2,000.0,028.6,021.7,012.8,0000.0,0009.50,0002.37,0000.71
2024-04-06 13:17:00,SystemResetWarning,0809.9,5.00,000.00,020.1,019.2,000.0,028.6,021.6,012.6,0000.0,0010.09,0002.41,0000.72
2024-04-06 13:18:00,SystemResetWarning,0809.9,5.00,000.00,020.1,019.2,000.0,028.6,021.6,012.7,0000.0,0010.72,0002.41,0000.71
2024-04-06 13:19:00,SystemResetWarning,0809.9,5.00,000.00,020.1,019.2,000.0,028.6,021.6,012.9,0000.0,0010.90,0002.35,0000.71
2024-04-06 13:20:00,SystemResetWarning,0810.0,5.00,000.00,020.0,019.1,000.0,028.5,021.6,013.1,0000.0,0011.16,0002.32,0000.70
2024-04-06 13:21:00,SystemResetWarning,0810.1,5.00,000.00,020.0,019.1,000.0,028.5,021.6,013.3,0000.0,0011.35,0002.30,0000.69
2024-04-06 13:22:00,SystemResetWarning,0810.2,4.99,000.00,020.0,019.1,000.0,028.5,021.6,013.5,0000.0,0011.30,0002.25,0000.69
2024-04-06 13:23:00,SystemResetWarning,0810.1,4.99,000.00,020.0,019.1,000.0,028.5,021.6,013.4,0000.0,0011.13,0002.31,0000.69
2024-04-06 13:24:00,SystemResetWarning,0810.1,5.00,000.00,020.0,019.1,000.0,028.5,021.5,013.5,0000.0,0011.51,0002.28,0000.69
2024-04-06 13:25:00,SystemResetWarning,0810.3,5.01,000.00,020.0,019.1,000.0,028.5,021.5,013.4,0000.0,0011.33,0002.20,0000.69
2024-04-06 13:26:00,SystemResetWarning,0810.3,4.99,000.00,020.0,019.1,000.0,028.5,021.5,013.5,0000.0,0010.65,0002.11,0000.68
2024-04-06 13:27:00,SystemResetWarning,0810.3,4.99,000.00,019.9,019.1,000.0,028.4,021.5,014.0,0000.0,0009.81,0002.00,0000.67
2024-04-06 13:28:00,SystemResetWarning,0810.4,5.00,000.00,019.9,019.0,000.0,028.4,021.5,014.2,0000.0,0009.15,0001.98,0000.66
2024-04-06 13:29:00,SystemResetWarning,0810.5,5.01,000.00,019.9,019.0,000.0,028.4,021.5,014.3,0000.0,0008.47,0001.96,0000.65
2024-04-06 13:30:00,SystemResetWarning,0810.5,5.01,000.00,019.9,019.0,000.0,028.4,021.5,014.2,0000.0,0007.62,0001.97,0000.66
2024-04-06 13:31:00,SystemResetWarning,0810.6,5.00,000.00,019.9,019.0,000.0,028.4,021.5,014.3,0000.0,0006.73,0001.96,0000.67
2024-04-06 13:32:00,SystemResetWarning,0810.6,4.99,000.00,019.9,019.0,000.0,028.4,021.5,014.5,0000.0,0006.37,0001.94,0000.67
2024-04-06 13:33:00,SystemResetWarning,0810.6,5.00,000.00,019.9,019.1,000.0,028.4,021.5,014.1,0000.0,0007.75,0001.88,0000.67
2024-04-06 13:34:00,SystemResetWarning,0810.7,4.99,000.00,019.9,019.1,000.0,028.4,021.5,013.6,0000.0,0008.16,0001.82,0000.67
2024-04-06 13:35:00,SystemResetWarning,0810.7,5.00,000.00,019.9,019.1,000.0,028.4,021.5,013.6,0000.0,0007.73,0001.83,0000.67
2024-04-06 13:36:00,SystemResetWarning,0810.7,4.99,000.00,019.9,019.1,000.0,028.3,021.4,013.3,0000.0,0007.72,0001.84,0000.65
2024-04-06 13:37:00,SystemResetWarning,0810.7,4.99,000.00,019.8,019.1,000.0,028.3,021.5,013.3,0000.0,0007.69,0001.81,0000.64
2024-04-06 13:38:00,SystemResetWarning,0810.7,5.00,000.00,019.9,019.1,000.0,028.3,021.5,013.4,0000.0,0007.55,0001.76,0000.63
2024-04-06 13:39:00,SystemResetWarning,0810.7,5.01,000.00,019.8,019.0,000.0,028.3,021.5,013.3,0000.0,0007.47,0001.70,0000.62
2024-04-06 13:40:00,SystemResetWarning,0810.7,5.00,000.00,019.8,019.0,000.0,028.3,021.5,013.3,0000.0,0007.22,0001.62,0000.61
2024-04-06 13:41:00,SystemResetWarning,0810.7,4.99,000.00,019.8,019.0,000.0,028.3,021.4,013.4,0000.0,0007.04,0001.54,0000.60
2024-04-06 13:42:00,SystemResetWarning,0810.8,5.00,000.00,019.8,019.0,000.0,028.3,021.5,013.3,0000.0,0006.92,0001.42,0000.58
2024-04-06 13:43:00,SystemResetWarning,0810.7,5.01,000.00,019.8,019.0,000.0,028.3,021.5,013.3,0000.0,0006.79,0001.33,0000.58
2024-04-06 13:44:00,SystemResetWarning,0810.7,5.01,000.00,019.8,019.0,000.0,028.3,021.5,013.2,0000.0,0004.93,0001.31,0000.58
2024-04-06 13:45:00,SystemResetWarning,0810.7,4.99,000.00,019.8,019.0,000.0,028.3,021.5,013.4,0000.0,0003.70,0001.32,0000.57
2024-04-06 13:46:00,SystemResetWarning,0810.6,4.99,000.00,019.8,019.1,000.0,028.3,021.5,013.3,0000.0,0003.28,0001.28,0000.56
2024-04-06 13:47:00,SystemResetWarning,0810.6,5.00,000.00,019.8,019.1,000.0,028.3,021.5,013.3,0000.0,0003.20,0001.25,0000.56
2024-04-06 13:48:00,SystemResetWarning,0810.6,5.01,000.00,019.8,019.1,000.0,028.3,021.5,013.3,0000.0,0003.18,0001.24,0000.57
2024-04-06 13:49:00,SystemResetWarning,0810.6,5.01,000.00,019.8,019.1,000.0,028.3,021.4,013.1,0000.0,0003.45,0001.28,0000.57
2024-04-06 13:50:00,SystemResetWarning,0810.5,5.01,000.00,019.8,019.0,000.0,028.2,021.4,013.0,0000.0,0003.63,0001.27,0000.58
2024-04-06 13:51:00,SystemResetWarning,0810.5,5.00,000.00,019.8,019.0,000.0,028.2,021.4,013.1,0000.0,0003.77,0001.28,0000.59
2024-04-06 13:52:00,SystemResetWarning,0810.5,5.00,000.00,019.8,019.0,000.0,028.2,021.4,013.0,0000.0,0003.98,0001.30,0000.58
2024-04-06 13:53:00,SystemResetWarning,0810.6,5.00,000.00,019.8,019.0,000.0,028.2,021.4,013.2,0000.0,0003.98,0001.36,0000.57
2024-04-06 13:54:00,SystemResetWarning,0810.5,4.99,000.00,019.8,019.0,000.0,028.2,021.4,013.2,0000.0,0004.82,0001.34,0000.56
2024-04-06 13:55:00,SystemResetWarning,0810.4,5.00,000.00,019.8,019.0,000.0,028.2,021.4,013.2,0000.0,0005.43,0001.35,0000.57
2024-04-06 13:56:00,SystemResetWarning,0810.4,5.00,000.00,019.7,018.9,000.0,028.2,021.4,012.9,0000.0,0005.50,0001.33,0000.57
2024-04-06 13:57:00,SystemResetWarning,0810.3,5.00,000.00,019.7,018.9,000.0,028.2,021.4,013.1,0000.0,0005.66,0001.37,0000.58
2024-04-06 13:58:00,SystemResetWarning,0810.4,5.01,000.00,019.7,018.9,000.0,028.2,021.3,013.2,0000.0,0005.87,0001.43,0000.59
2024-04-06 13:59:00,SystemResetWarning,0810.4,4.99,000.00,019.7,018.9,000.0,028.2,021.4,013.3,0000.0,0006.01,0001.50,0000.59
